Flag for Spain Weather past 2 weeks in Sevilla, Spain

Now
66 °F

Clear.


Feels Like: 66 °F
Forecast: 60 / 82 °F
Wind: 6 mph from Northeast

Location: Sevilla / San Pablo

Current Time: Oct 23, 2014 at 2:17:41 AM

Latest Report: Oct 23, 2014 at 1:00 AM


Visibility: 10 mi

Pressure: 30.15 "Hg

Humidity: 73%

Dew point: 57 °F

Location of SevillaLocation

Historic Weather in Sevilla — Graph

°F

Sevilla temperature yesterday

Maximum temperature yesterday: 88 °F (at 3:30 PM)
Minimum temperature yesterday: 63 °F (at 7:30 AM)
Average temperature yesterday: 75 °F

Past Weeks' High & Low Weather Summary

 TemperatureHumidityPressure
High88 °F (Oct 19, 5:00 PM)100% (Oct 8, 5:30 AM)30.27 "Hg (Oct 8, 5:30 AM)
Low55 °F (Oct 13, 8:00 AM)27% (Oct 19, 5:00 PM)29.71 "Hg (Oct 11, 9:00 PM)
Average70 °F74%29.99 "Hg
* Reported Oct 8 1:00 AM — Oct 23 1:00 AM, Sevilla, Weather by CustomWeather, © 2014

Note: Actual official high and low records may vary slightly from our data, if they occured in-between our weather recording intervals... More about our weather records

Advertising

Sevilla weather history for previous 24 hours

 ConditionsComfort  
Time TempWeatherWind HumidityBarometerVisibility
1:00 AM
Oct 23
66 °FClear.6 mph73%30.15 "Hg10 mi
12:30 AM68 °FClear.7 mph69%30.15 "Hg10 mi
12:00 AM70 °FClear.8 mph64%30.18 "Hg10 mi
11:30 PM
Oct 22
72 °FPassing clouds.8 mph61%30.15 "HgN/A
11:00 PM72 °FClear.8 mph61%30.15 "Hg10 mi
10:30 PM68 °FClear.5 mph78%30.15 "Hg10 mi
10:00 PM72 °FClear.3 mph69%30.15 "Hg10 mi
9:30 PM72 °FClear.5 mph69%30.15 "Hg10 mi
9:00 PM73 °FClear.5 mph65%30.15 "Hg10 mi
8:30 PM75 °FSunny.5 mph61%30.15 "Hg10 mi
8:00 PM79 °FSunny.3 mph51%30.15 "Hg10 mi
7:30 PM82 °FSunny.5 mph42%30.12 "Hg10 mi
7:00 PM84 °FSunny.6 mph37%30.12 "Hg10 mi
6:30 PM88 °FSunny.6 mph35%30.12 "Hg10 mi
6:00 PM88 °FSunny.3 mph31%30.12 "Hg10 mi
5:30 PM88 °FPassing clouds.3 mph33%30.12 "HgN/A
5:00 PM88 °FPassing clouds.3 mph33%30.15 "HgN/A
4:30 PM88 °FPassing clouds.3 mph38%30.15 "HgN/A
4:00 PM88 °FPassing clouds.3 mph33%30.15 "HgN/A
3:30 PM88 °FPassing clouds.6 mph31%30.18 "HgN/A
3:00 PM86 °FPassing clouds.3 mph33%30.18 "HgN/A
2:30 PM84 °FPassing clouds.3 mph33%30.21 "HgN/A
2:00 PM84 °FSunny.2 mph35%30.21 "Hg10 mi
1:30 PM82 °FSunny.2 mph35%30.21 "Hg10 mi
1:00 PM81 °FPassing clouds.3 mph42%30.24 "HgN/A
12:30 PM81 °FPassing clouds.3 mph48%30.24 "HgN/A
12:00 PM81 °FSunny.No wind45%30.24 "Hg10 mi
11:30 AM77 °FSunny.No wind57%30.27 "Hg10 mi
11:00 AM75 °FSunny.No wind57%30.27 "Hg10 mi
10:30 AM70 °FSunny.No wind69%30.27 "Hg10 mi
10:00 AM68 °FSunny.No wind73%30.24 "Hg10 mi
9:30 AM64 °FClear.No wind78%30.24 "Hg10 mi
9:00 AM63 °FClear.No wind83%30.24 "Hg10 mi
8:30 AM64 °FClear.No wind78%30.24 "Hg10 mi
8:00 AM64 °FClear.1 mph78%30.24 "Hg10 mi
7:30 AM63 °FClear.No wind77%30.24 "Hg10 mi
7:00 AM64 °FClear.1 mph78%30.21 "Hg10 mi
6:30 AM66 °FClear.1 mph73%30.21 "Hg10 mi
6:00 AM68 °FClear.7 mph64%30.21 "Hg10 mi
5:30 AM70 °FClear.6 mph60%30.21 "Hg10 mi
5:00 AM68 °FClear.8 mph64%30.21 "Hg10 mi
4:30 AM68 °FClear.6 mph69%30.24 "Hg10 mi
4:00 AM66 °FClear.2 mph73%30.24 "Hg10 mi
Weather by CustomWeather, © 2014

See weather overviewHow to use our weather pages